Temperature
17 18 18 18 18 19 20 22 25 25 25 25 25 25 25 26 24 21 21 20 20 22 22 21 19 18 17 17 17 16 16 16 16 16 16 16 16 15 15 15 15 14 14 14 14 14 15 15 15
17 17 17 19 18 18 20 22 24 25 25 24 24 24 24 25 22 21 20 20 19 20 21 20 19 18 17 17 16 16 16 16 16 16 16 16 16 15 15 15 15 14 14 14 14 15 15 15 15
17 16 18 18 18 19 21 24 24 25 24 24 24 25 25 24 22 21 20 19 18 19 20 20 19 18 17 17 16 16 16 16 16 16 16 16 16 16 15 15 15 14 14 14 14 15 15 15 15
16 16 18 18 19 20 22 24 24 24 24 24 24 25 23 21 21 20 20 19 18 18 19 20 19 17 17 16 16 16 16 16 16 16 16 16 16 16 15 15 15 14 14 14 15 15 15 15 14
15 17 17 17 19 21 23 24 24 24 24 24 24 24 21 21 20 20 19 19 18 17 18 19 18 17 16 16 16 16 16 16 16 16 16 16 16 16 16 15 15 15 15 15 15 15 15 14 14
15 17 16 17 19 21 22 24 24 23 24 24 24 24 20 20 20 19 19 19 18 18 18 18 17 16 16 16 16 16 16 16 16 16 16 16 16 16 16 16 15 15 15 15 15 15 15 15 14
15 16 16 18 19 20 22 24 23 23 23 24 24 24 20 20 19 19 19 19 18 17 17 18 17 16 16 16 16 16 16 16 16 16 16 16 17 16 16 16 16 15 15 15 15 15 15 15 14
15 16 16 18 19 20 23 24 23 23 23 23 23 23 20 19 19 19 19 19 18 17 17 17 17 16 16 16 16 16 16 16 16 16 16 17 17 17 16 16 16 16 16 16 15 15 15 15 14
15 15 16 17 19 20 23 23 23 22 22 23 22 21 19 19 19 19 19 18 18 17 16 16 16 16 16 16 16 16 16 16 16 16 16 17 17 17 16 16 16 16 16 16 16 15 15 15 14
14 14 16 19 20 20 22 22 22 22 21 22 22 20 19 18 18 18 18 18 17 17 16 16 16 16 15 16 16 16 16 16 16 17 17 16 17 16 16 17 16 16 16 16 16 15 15 15 15
14 15 17 19 19 19 21 21 21 21 20 22 22 20 19 18 17 17 17 17 17 16 16 16 16 16 15 15 15 15 16 16 16 16 16 16 15 15 15 16 16 16 16 16 16 15 15 15 14
15 16 18 18 18 18 19 20 20 21 21 20 20 20 19 18 18 17 16 16 16 16 16 16 16 16 15 15 15 15 15 15 15 15 15 15 14 14 15 16 16 16 16 16 16 15 15 14 14
15 16 17 17 17 17 18 19 20 20 20 19 19 19 19 19 18 17 17 17 16 16 16 15 15 15 15 15 15 15 15 15 15 15 15 14 14 14 14 15 15 16 16 15 15 15 14 14 13
15 16 17 17 16 17 17 18 18 19 19 19 18 18 19 19 18 18 17 17 17 17 16 16 15 15 15 15 15 15 15 15 15 15 15 15 15 15 14 14 14 14 14 14 14 14 13 13 13
15 15 15 16 16 16 17 16 17 18 19 19 19 19 19 19 18 18 18 18 17 17 17 17 16 16 16 16 15 15 15 15 15 15 15 15 15 15 15 14 14 14 14 13 13 13 13 13 13
14 14 13 15 16 16 15 14 17 18 18 18 19 19 19 19 18 18 18 18 18 17 17 17 16 16 16 16 16 16 15 15 15 15 15 15 15 15 15 14 14 14 13 13 13 13 12 12 12
12 12 13 14 15 16 15 15 17 18 18 18 18 19 19 19 18 18 18 18 17 17 17 17 16 16 16 16 16 16 16 16 15 15 15 15 15 15 14 14 14 14 13 13 13 13 12 12 12
12 12 13 14 15 15 14 15 16 17 17 17 18 18 19 19 18 18 18 17 17 17 17 17 16 16 16 16 15 15 16 16 16 16 16 15 15 15 14 14 14 14 13 13 13 12 12 12 12
14 14 14 15 15 15 14 14 16 17 17 17 17 18 18 18 18 17 17 17 16 16 16 16 16 16 16 15 15 15 16 16 16 16 16 16 15 15 14 14 14 13 13 13 13 12 12 12 11
14 14 14 14 15 14 14 14 15 16 16 16 16 17 17 17 16 16 15 15 15 15 15 15 16 16 16 15 15 15 15 15 16 16 16 16 15 15 14 14 13 13 13 13 12 12 12 12 11
13 14 14 13 13 14 14 13 14 15 15 15 15 15 15 15 15 14 14 13 14 14 14 14 15 15 15 15 15 15 15 15 14 15 15 15 15 15 14 14 13 13 12 12 12 12 12 12 11
12 14 14 13 12 11 12 12 14 13 13 14 14 14 14 14 13 13 12 12 12 12 13 14 14 14 15 15 15 15 14 14 14 14 14 14 14 14 14 13 13 13 12 12 12 12 12 11 11
12 13 13 13 12 12 12 11 13 13 12 12 13 14 13 12 12 11 11 11 11 12 12 13 13 13 14 14 14 14 14 13 13 13 13 13 13 13 13 13 12 12 12 12 12 12 12 11 11
12 12 12 12 11 10 12 12 13 12 12 12 13 13 12 12 11 11 10 10 10 11 11 12 12 12 12 13 13 13 13 13 13 13 13 13 13 12 12 12 12 12 12 11 11 11 11 11 11
11 10 9 9 9 10 13 13 13 13 13 13 12 12 12 11 11 10 10 10 10 10 10 10 11 11 11 11 11 11 11 12 12 12 12 12 12 12 12 12 12 12 11 11 11 11 11 11 11
10 10 10 10 10 11 12 12 13 13 13 13 13 12 11 11 10 10 9 9 9 9 10 10 10 10 10 10 10 10 10 10 11 11 11 11 11 11 11 11 11 11 11 11 11 10 10 10 10
10 10 11 10 11 10 11 12 11 12 11 11 12 12 11 11 10 9 9 9 9 9 9 9 9 9 9 9 9 9 9 9 10 10 10 10 10 10 10 10 10 10 10 10 10 10 10 10 10
10 10 9 8 9 10 12 12 10 10 10 11 11 11 11 10 10 9 9 8 8 8 8 8 8 8 8 8 8 8 8 8 8 9 9 9 9 9 9 9 10 10 10 10 9 9 9 9 9
9 10 10 9 10 9 11 11 13 11 11 11 11 12 11 10 9 8 8 7 7 7 7 7 7 7 7 7 7 7 7 7 8 8 8 8 8 8 8 8 9 9 9 8 8 8 8 8 8
10 10 10 8 9 9 9 10 12 11 12 12 12 11 10 10 9 8 7 7 6 6 6 6 6 6 6 6 6 6 6 6 7 7 7 7 7 7 7 7 8 8 7 7 7 7 7 7 7
Wind_Speed
11 13 9 4 4 5 10 10 6 5 3 6 8 7 9 6 5 6 5 8 17 17 20 19 19 18 17 17 17 17 15 14 13 12 10 10 9 10 10 11 12 14 14 15 15 15 15 15 14
10 10 6 4 5 7 9 11 5 4 6 7 3 5 6 2 9 8 5 12 17 17 19 18 19 18 18 18 18 16 15 14 13 11 10 10 10 10 11 12 13 14 15 15 15 15 14 14 13
8 10 5 4 7 10 9 6 4 6 8 2 5 7 4 4 8 7 8 12 15 15 18 20 20 18 18 18 18 16 15 14 12 11 11 10 11 12 13 14 14 14 14 14 14 14 13 13 12
4 4 5 8 12 14 14 3 5 4 5 4 5 4 5 6 5 8 10 11 14 14 19 20 19 19 18 18 17 16 15 14 12 12 11 11 12 13 14 14 14 14 14 14 13 13 12 12 11
4 4 8 11 14 13 11 4 5 3 6 7 6 1 7 6 10 11 9 11 13 15 19 19 19 19 19 18 17 16 15 14 13 12 11 11 13 14 14 14 14 14 13 13 12 12 11 10 9
4 4 9 13 15 14 12 6 6 5 4 5 4 3 7 8 10 9 8 9 12 16 17 18 19 19 18 18 17 16 15 14 13 11 11 11 12 13 13 13 13 13 12 12 11 10 10 9 7
6 7 12 15 14 14 13 8 7 6 6 4 2 1 8 9 8 8 8 9 13 14 15 15 16 16 18 18 17 16 15 14 13 12 11 11 12 12 12 12 12 11 11 11 10 9 8 7 6
6 5 13 15 15 13 11 9 7 6 6 1 1 3 8 8 6 6 6 8 12 12 12 11 14 15 15 15 17 17 16 15 14 13 13 13 12 11 11 11 11 10 10 10 9 8 8 7 5
5 7 13 15 13 11 8 6 7 3 5 3 3 8 9 10 7 7 6 6 8 10 11 10 11 13 15 15 16 16 16 15 15 13 14 14 13 12 11 11 11 10 10 10 9 8 8 7 6
6 10 16 11 9 9 7 4 6 6 6 6 4 10 11 9 8 8 6 4 5 6 8 9 9 9 12 13 15 14 14 14 14 14 15 13 14 14 13 15 14 11 10 10 9 9 8 8 8
7 9 11 10 3 5 3 1 2 5 7 8 8 11 11 10 8 8 8 7 5 3 3 4 6 7 7 7 11 11 12 14 14 15 17 15 12 12 13 13 12 11 11 10 10 10 10 11 11
9 11 11 6 1 3 3 1 4 6 1 6 8 6 9 8 8 8 8 10 9 7 5 3 3 4 5 7 7 8 9 10 10 12 16 13 7 8 10 10 12 12 12 12 12 11 13 12 10
14 10 8 3 3 2 2 4 5 5 3 7 7 5 3 6 7 7 7 7 9 9 8 6 5 5 3 3 3 4 6 8 11 12 13 13 7 5 7 8 12 13 14 12 11 11 10 9 9
10 8 5 4 4 2 2 5 5 5 2 4 2 2 3 3 5 6 7 6 8 10 10 10 8 7 5 4 3 3 5 7 10 12 13 14 10 8 6 6 7 10 12 12 11 9 7 6 6
8 7 6 6 6 4 3 8 10 7 4 5 6 6 5 3 2 3 5 5 5 7 10 11 11 10 9 7 6 5 6 7 6 9 14 15 14 11 8 4 5 8 11 11 10 9 7 5 5
7 8 8 9 10 7 7 10 10 10 8 8 8 7 7 7 6 5 5 4 4 4 6 9 9 10 10 9 7 5 6 6 7 9 11 15 16 14 9 5 5 10 11 9 5 5 5 5 5
7 11 13 10 13 9 9 8 7 7 7 7 8 8 7 6 7 6 3 2 2 2 3 5 7 8 8 8 7 6 6 5 6 8 9 12 14 16 11 6 7 11 7 5 6 6 5 5 5
14 13 15 12 13 12 11 9 6 5 4 7 8 8 7 6 4 1 2 2 1 2 3 2 4 6 6 6 5 5 6 5 5 6 7 10 12 14 12 7 8 9 6 6 6 6 6 5 6
11 14 13 11 9 11 11 11 10 7 7 8 8 7 6 3 2 3 4 4 4 3 3 4 3 2 3 3 4 5 6 6 5 5 9 10 11 12 10 6 7 7 8 8 8 6 7 6 5
7 11 10 7 7 7 8 10 10 7 7 5 5 6 3 1 3 5 4 4 4 4 5 4 4 4 2 1 1 3 4 5 6 6 7 11 10 10 8 7 8 8 8 9 10 8 6 6 6
9 8 7 8 6 3 4 8 11 6 4 3 4 3 2 2 3 5 5 6 6 6 6 6 6 5 5 4 3 3 2 2 3 5 6 8 11 11 10 8 7 8 9 9 10 10 10 8 7
7 2 3 9 7 5 8 5 9 10 8 7 6 4 4 4 5 6 6 6 6 5 6 6 6 5 5 5 3 3 3 4 5 4 5 7 9 10 12 10 9 9 8 9 10 11 9 9 8
3 3 4 5 5 3 7 5 4 10 9 9 8 7 7 6 6 6 6 5 5 5 5 5 5 5 5 5 4 4 4 4 4 4 5 5 5 6 8 9 8 10 9 9 10 10 11 10 10
6 6 5 1 2 4 9 8 5 8 12 11 9 9 8 7 6 6 5 5 5 4 4 5 5 5 5 5 5 4 4 5 5 6 5 5 4 3 5 5 7 8 9 10 10 10 11 11 11
5 6 4 4 4 6 6 6 4 7 12 12 11 9 8 7 5 5 5 5 5 5 5 6 6 6 7 7 6 6 5 5 5 5 5 5 4 3 4 4 4 5 7 8 8 9 10 11 11
6 4 2 4 5 3 2 5 2 9 10 11 10 8 6 6 6 5 5 4 4 6 6 7 7 7 7 7 7 7 7 5 4 5 4 5 4 4 5 4 3 4 4 4 5 6 7 7 8
5 4 1 2 2 2 5 5 5 7 9 9 8 8 7 6 6 5 5 5 6 6 6 6 7 6 7 7 7 7 7 6 6 6 5 4 5 5 6 5 4 4 3 3 3 3 3 3 3
1 1 2 1 1 3 6 8 8 12 11 10 9 8 7 6 5 5 5 5 5 5 5 6 7 7 7 7 6 6 7 7 6 6 6 6 7 7 6 6 6 5 5 4 3 2 2 2 2
3 2 3 3 3 2 2 1 1 15 13 11 9 8 7 6 5 5 4 4 4 4 5 6 6 7 7 7 7 7 7 7 7 7 8 7 7 8 8 7 7 7 7 6 5 5 5 6 6
3 4 5 3 3 3 2 2 3 10 10 8 8 7 6 6 5 4 4 3 4 5 5 5 6 6 6 6 7 7 7 8 8 8 9 9 9 9 9 9 9 10 9 9 8 8 8 7 7
Wind_Direction
286 272 264 261 255 234 244 250 256 79 26 32 17 338 327 337 29 93 203 128 121 129 137 142 140 140 139 136 131 127 124 122 119 115 109 103 97 97 102 105 105 105 99 96 94 92 90 88 87
283 270 265 250 239 235 236 237 229 146 87 54 357 283 289 3 93 111 132 114 124 128 140 143 140 140 139 135 132 129 127 125 121 115 112 109 101 101 106 104 106 104 100 99 97 95 92 89 87
272 267 250 232 232 240 249 217 171 123 94 141 224 219 240 33 74 104 118 125 126 131 140 137 140 139 138 135 134 132 131 127 123 117 112 110 105 106 109 105 105 104 104 104 103 100 96 91 88
245 233 246 241 235 234 257 318 58 108 136 192 255 197 91 45 49 99 123 135 129 130 126 135 137 137 137 137 137 135 133 130 126 121 116 111 109 107 107 106 105 108 109 109 108 105 100 94 90
246 228 226 235 242 244 244 222 121 201 171 177 242 187 88 75 83 109 145 142 133 125 125 136 135 137 139 139 140 138 136 133 130 127 123 117 113 112 112 112 112 113 113 114 113 110 104 98 93
207 224 222 226 234 242 251 229 156 225 208 165 225 242 99 112 110 131 142 139 124 120 126 134 137 139 141 143 143 142 140 139 136 133 129 123 119 119 119 121 122 121 121 121 120 117 111 105 100
209 216 228 229 232 233 233 226 185 208 241 204 224 276 114 105 110 131 142 133 116 119 127 136 140 141 144 147 147 147 146 144 142 139 134 129 127 128 128 130 131 130 130 130 129 127 121 115 111
226 232 235 234 236 238 229 213 187 204 241 232 39 347 111 112 116 115 119 114 117 123 131 143 148 149 149 150 152 151 151 150 148 144 139 136 137 139 141 143 141 140 140 140 140 140 136 132 132
244 232 228 227 235 247 250 210 172 159 283 274 114 76 94 107 102 94 83 79 110 129 138 149 154 157 160 161 159 155 157 158 153 152 152 152 158 159 164 159 150 152 153 153 154 154 152 153 159
210 224 225 231 245 253 256 235 162 159 232 253 149 107 114 124 126 121 121 117 118 135 143 152 157 159 166 161 157 166 167 167 171 168 169 183 191 178 171 156 158 164 166 167 168 169 172 180 184
205 228 228 239 315 321 277 215 221 195 211 226 190 146 137 138 145 148 153 161 168 170 154 149 152 153 157 145 163 174 174 175 193 183 180 201 200 158 145 154 162 171 176 181 180 183 200 211 198
211 227 234 231 54 341 329 284 246 240 240 54 59 94 130 152 161 168 178 175 171 178 181 173 154 145 161 160 177 176 174 176 191 193 186 198 190 164 164 170 175 183 190 194 184 198 214 216 198
222 221 218 164 117 248 287 266 259 237 109 74 63 56 134 167 169 178 193 176 166 170 174 187 187 177 183 178 185 188 184 177 186 191 195 197 185 176 182 185 181 190 192 193 190 204 206 201 200
213 220 205 149 159 205 239 260 252 252 158 129 146 205 216 191 172 175 187 189 176 171 176 183 193 192 187 194 196 203 207 192 190 185 193 202 199 193 190 192 190 196 196 191 194 205 201 192 191
204 196 192 196 186 185 212 247 237 240 221 209 212 215 212 207 190 206 198 199 197 182 178 181 188 192 191 197 205 213 216 207 202 192 193 201 206 203 198 195 193 198 203 199 197 209 205 188 182
192 190 194 200 199 192 197 234 229 218 223 234 236 228 210 200 199 218 219 207 215 200 185 183 186 189 193 195 197 207 220 221 209 204 199 203 207 208 204 198 205 203 202 200 193 203 199 192 182
184 195 199 192 193 189 199 240 237 185 199 231 247 248 235 211 203 209 200 189 228 255 229 189 185 191 199 197 190 192 207 225 224 215 208 208 210 210 206 203 207 208 203 198 198 198 193 192 191
186 196 198 197 184 194 205 230 238 151 186 233 244 248 241 226 203 135 58 29 331 303 300 265 206 197 203 201 194 190 199 216 230 235 227 217 215 215 211 207 209 208 204 206 203 200 198 194 189
196 201 201 193 170 188 211 227 235 195 196 229 248 255 253 227 129 72 41 24 5 344 321 307 293 246 212 202 197 197 204 209 218 230 240 239 230 220 214 209 209 209 212 210 205 202 204 206 180
254 209 199 150 151 177 216 230 234 218 203 217 256 272 280 359 58 60 48 39 21 12 4 344 337 333 325 285 232 210 207 212 215 216 226 235 243 240 226 218 216 213 215 213 210 208 204 202 183
236 219 193 144 135 202 234 241 225 203 198 209 243 266 353 31 68 73 61 53 44 33 12 353 350 346 341 340 340 327 299 250 222 226 225 222 226 234 236 230 225 222 217 220 216 212 209 212 204
209 240 168 137 147 202 198 241 205 179 184 197 200 179 136 91 77 69 59 51 50 39 13 354 351 350 344 339 320 288 266 256 246 238 232 226 221 222 225 229 228 229 227 224 221 217 215 210 213
139 84 103 140 203 228 192 237 206 152 178 186 176 147 123 107 99 93 80 70 64 47 16 353 349 354 352 345 332 313 295 284 290 291 276 262 243 229 225 224 224 229 231 231 228 224 220 217 216
121 100 86 99 230 244 208 210 212 181 182 168 152 136 132 126 119 108 97 84 71 49 20 355 357 3 4 357 345 337 319 314 315 310 303 295 285 265 246 238 231 231 230 231 232 231 228 226 223
151 138 144 175 203 236 196 198 250 163 155 150 145 142 137 134 120 98 80 62 57 45 22 8 13 11 9 4 356 347 337 325 313 310 311 312 307 300 284 266 256 252 243 237 234 234 235 231 227
189 202 193 191 196 178 147 212 110 100 112 120 124 127 132 128 109 98 83 62 51 43 28 17 13 11 10 4 355 351 350 344 334 331 325 320 315 315 321 307 293 283 276 266 251 246 244 240 233
172 213 350 331 294 164 202 169 100 114 120 131 145 152 153 134 118 104 85 65 48 38 28 16 11 14 14 6 358 356 356 353 346 342 340 334 341 344 351 350 349 346 341 330 302 273 267 259 249
328 150 143 153 225 248 197 182 183 172 170 173 171 166 151 139 130 108 87 71 53 41 29 23 19 20 16 10 7 10 4 359 358 0 3 5 8 9 8 10 13 15 18 19 20 11 16 64 53
168 177 214 232 283 280 240 156 54 169 170 173 164 143 136 139 120 99 83 76 65 51 41 32 25 25 19 13 14 15 10 8 11 21 22 22 24 23 24 25 29 32 32 33 46 53 59 72 72
250 207 187 195 239 226 273 311 352 145 149 144 130 128 132 124 110 102 93 80 67 54 43 41 35 31 22 18 23 23 22 24 29 30 29 32 34 34 36 40 45 44 42 42 50 59 65 73 79
Height
1519 1521 1522 1524 1524 1523 1519 1506 1496 1496 1499 1501 1502 1503 1503 1503 1508 1519 1518 1519 1517 1518 1522 1525 1528 1531 1534 1536 1539 1541 1543 1544 1545 1546 1546 1546 1547 1547 1547 1548 1549 1550 1551 1552 1553 1553 1552 1553 1553
1518 1521 1523 1523 1523 1526 1515 1502 1497 1498 1501 1505 1507 1507 1506 1506 1509 1513 1516 1518 1518 1519 1522 1526 1529 1531 1534 1537 1539 1541 1543 1545 1546 1546 1547 1547 1548 1548 1549 1550 1551 1552 1553 1554 1554 1554 1554 1554 1555
1517 1520 1523 1519 1519 1518 1508 1495 1494 1497 1502 1507 1507 1507 1506 1509 1511 1513 1516 1518 1519 1520 1523 1526 1529 1532 1535 1538 1540 1542 1544 1545 1546 1547 1547 1548 1549 1549 1550 1551 1552 1554 1555 1555 1556 1556 1556 1557 1557
1517 1520 1520 1517 1513 1507 1501 1496 1496 1499 1503 1506 1506 1506 1507 1511 1512 1514 1516 1519 1520 1521 1523 1527 1530 1533 1536 1538 1541 1543 1544 1546 1547 1547 1548 1549 1550 1550 1551 1552 1554 1555 1556 1557 1557 1558 1558 1559 1560
1516 1518 1518 1515 1510 1501 1496 1496 1498 1500 1502 1505 1505 1504 1508 1512 1513 1514 1517 1521 1522 1523 1524 1528 1530 1533 1536 1539 1541 1543 1545 1546 1547 1548 1549 1550 1550 1551 1552 1554 1555 1556 1557 1558 1559 1559 1560 1561 1561
1515 1514 1515 1514 1507 1500 1496 1496 1499 1501 1502 1504 1505 1504 1510 1512 1514 1516 1519 1522 1524 1523 1525 1528 1531 1534 1537 1539 1542 1543 1545 1546 1547 1548 1549 1550 1551 1552 1553 1554 1555 1557 1558 1559 1559 1560 1561 1562 1563
1511 1510 1509 1507 1504 1500 1496 1495 1498 1501 1502 1503 1504 1505 1509 1512 1515 1518 1520 1523 1524 1524 1525 1529 1531 1534 1537 1540 1542 1543 1545 1546 1547 1548 1549 1550 1551 1552 1553 1555 1556 1557 1558 1559 1560 1561 1562 1563 1564
1506 1507 1506 1503 1501 1498 1493 1493 1496 1500 1503 1504 1505 1506 1510 1512 1515 1518 1521 1524 1525 1526 1527 1529 1532 1534 1537 1539 1541 1543 1545 1546 1547 1548 1550 1551 1552 1553 1554 1554 1556 1557 1558 1559 1560 1562 1563 1564 1565
1504 1507 1503 1500 1498 1495 1491 1492 1495 1500 1503 1504 1506 1508 1511 1512 1514 1517 1520 1523 1525 1527 1528 1530 1532 1535 1537 1539 1541 1543 1544 1546 1547 1548 1549 1550 1551 1552 1553 1554 1555 1557 1558 1559 1560 1562 1563 1564 1564
1501 1501 1497 1494 1493 1493 1492 1492 1495 1500 1503 1504 1506 1508 1510 1512 1514 1516 1519 1521 1524 1527 1529 1531 1533 1535 1537 1539 1540 1542 1543 1545 1546 1547 1549 1550 1551 1552 1552 1554 1555 1556 1557 1558 1560 1561 1562 1563 1564
1496 1494 1493 1492 1492 1492 1492 1493 1495 1499 1503 1503 1504 1507 1510 1512 1514 1516 1518 1521 1523 1526 1529 1531 1533 1535 1537 1538 1540 1541 1542 1543 1545 1546 1547 1549 1550 1551 1552 1553 1554 1555 1556 1557 1559 1560 1561 1562 1562
1492 1491 1491 1492 1493 1494 1494 1495 1497 1500 1502 1502 1503 1505 1508 1511 1513 1516 1518 1520 1522 1524 1527 1529 1532 1534 1536 1537 1539 1541 1541 1542 1544 1545 1546 1548 1550 1550 1551 1552 1553 1554 1555 1556 1557 1558 1559 1560 1561
1489 1489 1490 1492 1494 1496 1496 1497 1499 1500 1502 1502 1503 1506 1509 1511 1513 1515 1518 1520 1521 1523 1525 1527 1530 1532 1534 1536 1538 1539 1541 1542 1543 1544 1545 1547 1548 1549 1550 1550 1551 1552 1553 1554 1555 1556 1557 1558 1559
1487 1487 1489 1492 1495 1497 1498 1499 1500 1500 1501 1503 1505 1507 1509 1511 1513 1515 1517 1519 1521 1522 1523 1525 1527 1529 1531 1533 1535 1537 1539 1540 1541 1542 1543 1544 1546 1547 1548 1548 1549 1550 1551 1552 1553 1554 1555 1556 1557
1485 1488 1491 1493 1495 1498 1501 1502 1500 1500 1501 1503 1505 1507 1509 1510 1512 1514 1515 1517 1519 1521 1522 1523 1525 1527 1528 1530 1532 1534 1536 1538 1539 1540 1541 1542 1543 1544 1545 1546 1547 1547 1549 1550 1550 1551 1552 1553 1553
1485 1490 1495 1493 1494 1497 1503 1504 1497 1499 1500 1502 1504 1505 1507 1509 1510 1512 1514 1516 1518 1519 1521 1522 1523 1525 1526 1528 1529 1531 1533 1535 1536 1537 1538 1539 1539 1541 1541 1542 1543 1544 1545 1546 1547 1548 1549 1549 1550
1488 1492 1494 1491 1491 1494 1500 1500 1494 1494 1497 1500 1502 1503 1504 1506 1508 1510 1512 1513 1515 1517 1519 1521 1521 1523 1524 1526 1527 1528 1530 1531 1533 1534 1535 1535 1536 1537 1538 1538 1539 1540 1541 1542 1543 1543 1544 1545 1545
1486 1486 1488 1489 1487 1491 1496 1496 1493 1493 1495 1498 1499 1501 1502 1503 1505 1507 1508 1510 1512 1514 1516 1518 1519 1520 1522 1523 1524 1525 1525 1527 1528 1530 1530 1531 1532 1533 1533 1534 1535 1536 1536 1537 1538 1538 1539 1540 1541
1475 1480 1482 1483 1483 1489 1493 1494 1492 1491 1493 1496 1497 1498 1499 1501 1502 1503 1505 1507 1508 1510 1512 1514 1516 1517 1518 1519 1520 1520 1521 1522 1523 1525 1526 1527 1527 1528 1528 1529 1530 1530 1531 1531 1533 1534 1534 1535 1537
1473 1476 1478 1481 1483 1488 1491 1491 1488 1488 1490 1492 1494 1495 1497 1498 1499 1501 1502 1504 1505 1507 1508 1509 1511 1512 1513 1514 1515 1516 1517 1517 1518 1519 1520 1521 1522 1523 1523 1523 1524 1525 1525 1526 1527 1528 1528 1529 1530
1475 1475 1476 1482 1486 1487 1491 1492 1487 1485 1487 1490 1492 1493 1495 1496 1498 1499 1500 1501 1502 1503 1504 1505 1506 1507 1508 1509 1510 1511 1512 1512 1513 1513 1514 1515 1516 1517 1517 1518 1518 1519 1520 1520 1521 1522 1522 1522 1523
1477 1473 1474 1481 1490 1494 1493 1498 1482 1483 1487 1488 1490 1492 1494 1496 1497 1498 1499 1500 1500 1500 1501 1501 1502 1503 1504 1504 1505 1506 1506 1507 1508 1509 1509 1510 1510 1510 1511 1511 1512 1512 1513 1513 1514 1515 1515 1516 1516
1477 1476 1478 1483 1489 1490 1490 1496 1483 1481 1486 1488 1489 1491 1493 1496 1497 1498 1499 1499 1498 1498 1498 1499 1499 1499 1500 1500 1500 1501 1501 1502 1503 1504 1504 1504 1505 1505 1505 1505 1505 1505 1506 1506 1507 1508 1508 1508 1508
1478 1481 1485 1487 1491 1498 1487 1491 1483 1480 1479 1484 1487 1490 1493 1495 1497 1498 1498 1498 1497 1497 1496 1496 1496 1496 1496 1497 1497 1497 1497 1497 1498 1498 1498 1499 1499 1499 1499 1499 1499 1499 1499 1499 1500 1500 1500 1500 1501
1481 1488 1497 1500 1502 1496 1476 1481 1477 1470 1472 1479 1485 1489 1492 1495 1496 1497 1497 1497 1496 1495 1495 1494 1494 1494 1494 1493 1493 1493 1493 1493 1493 1493 1493 1493 1493 1493 1493 1493 1493 1493 1493 1493 1493 1493 1493 1493 1493
1482 1484 1491 1494 1494 1486 1480 1482 1476 1470 1473 1479 1484 1488 1492 1494 1495 1495 1495 1495 1495 1494 1493 1493 1492 1492 1491 1490 1490 1490 1489 1489 1488 1488 1488 1488 1488 1487 1487 1487 1486 1486 1486 1486 1486 1485 1486 1486 1486
1483 1485 1483 1487 1482 1486 1484 1477 1481 1475 1478 1481 1485 1488 1491 1492 1493 1494 1494 1493 1493 1492 1491 1491 1490 1489 1488 1487 1487 1486 1485 1485 1484 1484 1483 1483 1482 1482 1481 1481 1481 1480 1480 1479 1479 1479 1479 1479 1479
1482 1480 1487 1491 1489 1485 1475 1474 1479 1479 1480 1481 1483 1486 1489 1491 1492 1492 1492 1492 1491 1490 1490 1489 1488 1486 1485 1484 1483 1482 1482 1481 1480 1479 1478 1478 1477 1476 1476 1475 1475 1474 1474 1474 1473 1473 1472 1472 1472
1484 1484 1484 1485 1484 1489 1482 1478 1464 1469 1474 1478 1481 1484 1487 1489 1490 1490 1490 1490 1489 1489 1488 1487 1485 1484 1483 1482 1481 1480 1479 1478 1477 1476 1475 1474 1473 1472 1471 1471 1470 1469 1469 1468 1467 1467 1467 1467 1467
1479 1479 1482 1489 1487 1484 1489 1483 1465 1467 1471 1476 1480 1483 1485 1487 1488 1488 1488 1488 1488 1487 1486 1485 1484 1482 1481 1480 1479 1477 1476 1475 1474 1473 1472 1471 1470 1469 1468 1467 1466 1465 1464 1464 1463 1463 1463 1463 1463